Location: Marsån
(66.4167°N, 22.2833°E)
Time: 09:52:59
(UTC+00:00)

Cosmos 2322 Rocket - Pass Details

Date: 24 February 2024
Orbit: 834 x 848 km, 71.0° (Epoch: 15 April)

Event Time Altitude Azimuth Distance (km) Brightness Sun altitude
Rises 16:25:01 0° 302° (WNW) 3,413 6.2 -6.8°
Reaches altitude 10° 16:27:28 10° 304° (WNW) 2,474 5.4 -7.0°
Maximum altitude 16:33:10 79° 31° (NNE) 863 2.2 -7.6°
Drops below altitude 10° 16:38:49 10° 119° (ESE) 2,456 4.1 -8.1°
Enters shadow 16:40:13 - 120° (ESE) 2,988 4.6 -8.3°
